Beaver Bay, MN

3:44 AM CST on February 10, 2016 (GMT -0600)
Silver Bay Municipal

Weather History for KBFW - March, 2013

Change the Weather History Date:

Monday, March 11, 2013

  Actual Average Record
Temperature  
Mean Temperature 24 °F -  
Max Temperature 28 °F 28 °F 60 °F (2012)
Min Temperature 19 °F 7 °F -9 °F (2001)
Degree Days  
Heating Degree Days 42    
Moisture  
Dew Point 13 °F    
Average Humidity 65    
Maximum Humidity 80    
Minimum Humidity 47    
Precipitation  
Precipitation 0.00 in - - ()
Sea Level Pressure  
Sea Level Pressure 29.77 in    
Wind  
Wind Speed 4 mph (NNE)    
Max Wind Speed 8 mph    
Max Gust Speed 17 mph    
Visibility 9 miles    
Events Snow    
Averages and records for this station are not official NWS values.
T = Trace of Precipitation, MM = Missing Value Source: NWS Daily Summary

Daily Weather History Graph

Daily Weather History Graph

Search for Another Location

Airport or City:

Trip Planner

Search our weather history database for the weather conditions in past years. The results will help you decide how hot, cold, wet, or windy it might be!

Date:

Astronomy

Mar. 11, 2013 Rise Set
Actual Time 7:25 AM CDT 7:05 PM CDT
Civil Twilight 6:55 AM CDT 7:36 PM CDT
Nautical Twilight 6:20 AM CDT 8:11 PM CDT
Astronomical Twilight 5:44 AM CDT 8:48 PM CDT
Moon 6:58 AM CDT (3/11) 7:22 PM CDT (3/11)
Length of Visible Light 12h 40m
Length of Day
11h 39m
Waning Crescent, 0% of the Moon is Illuminated
Mar 11
Waning Crescent
Mar 11
New
Mar 19
First Quarter
Mar 27
Full
Apr 2
Last Quarter

Hourly Weather History & Observations

Time (CDT) Temp. Windchill Dew Point Humidity Pressure Visibility Wind Dir Wind Speed Gust Speed Precip Events Conditions
12:13 AM 23.0 °F 14.7 °F 14.0 °F 68% 29.94 in 10.0 mi NNE 6.9 mph 17.3 mph N/A   Clear
12:33 AM 23.0 °F 18.4 °F 14.0 °F 68% 29.92 in 10.0 mi NNE 3.5 mph - N/A   Clear
12:53 AM 23.0 °F 15.8 °F 14.0 °F 68% 29.91 in 10.0 mi NNE 5.8 mph - N/A   Scattered Clouds
1:33 AM 23.0 °F 15.8 °F 14.0 °F 68% 29.89 in 10.0 mi NNE 5.8 mph - N/A   Scattered Clouds
1:53 AM 23.0 °F 15.8 °F 14.0 °F 68% 29.89 in 10.0 mi North 5.8 mph - N/A   Scattered Clouds
2:13 AM 23.0 °F 17.0 °F 15.8 °F 74% 29.89 in 10.0 mi NNE 4.6 mph - N/A   Scattered Clouds
2:33 AM 23.0 °F 14.7 °F 14.0 °F 68% 29.88 in 10.0 mi NNE 6.9 mph - N/A   Mostly Cloudy
2:53 AM 23.0 °F 15.8 °F 14.0 °F 68% 29.88 in 10.0 mi NNE 5.8 mph - N/A   Scattered Clouds
3:13 AM 23.0 °F 15.8 °F 15.8 °F 74% 29.88 in 10.0 mi NNE 5.8 mph - N/A   Scattered Clouds
3:33 AM 23.0 °F 17.0 °F 15.8 °F 74% 29.87 in 10.0 mi North 4.6 mph - N/A   Scattered Clouds
3:53 AM 23.0 °F 14.7 °F 15.8 °F 74% 29.86 in 10.0 mi NNE 6.9 mph - N/A   Mostly Cloudy
4:13 AM 23.0 °F 15.8 °F 15.8 °F 74% 29.85 in 10.0 mi North 5.8 mph - N/A   Scattered Clouds
4:33 AM 23.0 °F 15.8 °F 15.8 °F 74% 29.85 in 10.0 mi North 5.8 mph - N/A   Scattered Clouds
5:13 AM 21.2 °F 12.6 °F 14.0 °F 74% 29.84 in 10.0 mi NNE 6.9 mph - N/A   Mostly Cloudy
5:33 AM 21.2 °F 14.9 °F 14.0 °F 74% 29.83 in 10.0 mi NE 4.6 mph - N/A   Mostly Cloudy
5:53 AM 21.2 °F 14.9 °F 14.0 °F 74% 29.83 in 10.0 mi North 4.6 mph - N/A   Scattered Clouds
6:13 AM 21.2 °F 12.6 °F 14.0 °F 74% 29.83 in 10.0 mi NNE 6.9 mph - N/A   Scattered Clouds
6:33 AM 21.2 °F 12.6 °F 14.0 °F 74% 29.82 in 10.0 mi NNE 6.9 mph - N/A   Mostly Cloudy
6:53 AM 21.2 °F 13.6 °F 14.0 °F 74% 29.82 in 10.0 mi NNE 5.8 mph - N/A   Mostly Cloudy
7:13 AM 21.2 °F 14.9 °F 14.0 °F 74% 29.82 in 10.0 mi NNE 4.6 mph - N/A   Mostly Cloudy
7:33 AM 21.2 °F 13.6 °F 12.2 °F 68% 29.81 in 10.0 mi NNE 5.8 mph - N/A   Mostly Cloudy
7:53 AM 21.2 °F 13.6 °F 12.2 °F 68% 29.81 in 10.0 mi NNE 5.8 mph - N/A   Mostly Cloudy
8:13 AM 21.2 °F 13.6 °F 12.2 °F 68% 29.81 in 10.0 mi NNE 5.8 mph - N/A   Mostly Cloudy
8:33 AM 21.2 °F 13.6 °F 12.2 °F 68% 29.81 in 10.0 mi NNE 5.8 mph - N/A   Mostly Cloudy
8:53 AM 21.2 °F 14.9 °F 12.2 °F 68% 29.80 in 10.0 mi NNE 4.6 mph - N/A   Mostly Cloudy
9:13 AM 21.2 °F 13.6 °F 12.2 °F 68% 29.81 in 10.0 mi North 5.8 mph - N/A   Scattered Clouds
9:33 AM 21.2 °F 13.6 °F 12.2 °F 68% 29.81 in 10.0 mi NNE 5.8 mph - N/A   Scattered Clouds
9:53 AM 21.2 °F 13.6 °F 12.2 °F 68% 29.80 in 10.0 mi North 5.8 mph - N/A   Scattered Clouds
10:13 AM 21.2 °F 14.9 °F 12.2 °F 68% 29.80 in 10.0 mi North 4.6 mph - N/A   Clear
10:33 AM 21.2 °F 12.6 °F 12.2 °F 68% 29.79 in 10.0 mi North 6.9 mph - N/A   Clear
10:53 AM 21.2 °F 12.6 °F 12.2 °F 68% 29.79 in 10.0 mi North 6.9 mph - N/A   Clear
11:13 AM 23.0 °F 14.7 °F 12.2 °F 63% 29.78 in 10.0 mi NNW 6.9 mph - N/A   Scattered Clouds
11:33 AM 23.0 °F 13.9 °F 12.2 °F 63% 29.77 in 7.0 mi North 8.1 mph - N/A   Mostly Cloudy
11:53 AM 24.8 °F 16.1 °F 12.2 °F 59% 29.77 in 7.0 mi North 8.1 mph - N/A Snow Light Snow
12:13 PM 24.8 °F 16.9 °F 12.2 °F 59% 29.76 in 7.0 mi North 6.9 mph - N/A Snow Light Snow
12:33 PM 24.8 °F 20.5 °F 10.4 °F 54% 29.76 in 10.0 mi North 3.5 mph - N/A   Clear
12:53 PM 24.8 °F - 10.4 °F 54% 29.75 in 10.0 mi Calm Calm - N/A   Scattered Clouds
1:13 PM 24.8 °F - 10.4 °F 54% 29.74 in 10.0 mi Calm Calm - N/A   Scattered Clouds
1:33 PM 26.6 °F - 10.4 °F 51% 29.73 in 10.0 mi Calm Calm - N/A   Scattered Clouds
1:53 PM 28.4 °F 23.3 °F 10.4 °F 47% 29.72 in 10.0 mi North 4.6 mph - N/A   Clear
2:13 PM 28.4 °F - 10.4 °F 47% 29.71 in 10.0 mi Calm Calm - N/A   Clear
2:33 PM 28.4 °F - 10.4 °F 47% 29.70 in 10.0 mi Calm Calm - N/A   Clear
2:53 PM 28.4 °F - 10.4 °F 47% 29.70 in 10.0 mi Calm Calm - N/A   Clear
3:13 PM 28.4 °F - 12.2 °F 51% 29.70 in 10.0 mi Calm Calm - N/A   Clear
3:33 PM 26.6 °F - 12.2 °F 55% 29.70 in 10.0 mi Calm Calm - N/A   Scattered Clouds
3:53 PM 26.6 °F - 12.2 °F 55% 29.71 in 10.0 mi Calm Calm - N/A   Scattered Clouds
4:13 PM 26.6 °F - 12.2 °F 55% 29.70 in 10.0 mi Calm Calm - N/A   Mostly Cloudy
4:33 PM 24.8 °F - 12.2 °F 59% 29.70 in 10.0 mi Calm Calm - N/A   Mostly Cloudy
4:53 PM 24.8 °F - 12.2 °F 59% 29.70 in 10.0 mi Calm Calm - N/A Snow Light Snow
5:13 PM 24.8 °F - 12.2 °F 59% 29.70 in 10.0 mi Calm Calm - N/A Snow Light Snow
5:33 PM 24.8 °F - 12.2 °F 59% 29.70 in 7.0 mi Calm Calm - N/A Snow Light Snow
5:53 PM 24.8 °F - 12.2 °F 59% 29.71 in 4.0 mi Calm Calm - N/A Snow Light Snow
6:13 PM 23.0 °F - 12.2 °F 63% 29.71 in 5.0 mi Calm Calm - N/A Snow Light Snow
6:33 PM 23.0 °F - 12.2 °F 63% 29.71 in 7.0 mi Calm Calm - N/A Snow Light Snow
6:53 PM 23.0 °F - 14.0 °F 68% 29.71 in 5.0 mi Calm Calm - N/A Snow Light Snow
7:13 PM 21.2 °F - 12.2 °F 68% 29.71 in 7.0 mi Calm Calm - N/A Snow Light Snow
7:33 PM 21.2 °F - 12.2 °F 68% 29.71 in 10.0 mi Calm Calm - N/A   Overcast
7:53 PM 21.2 °F - 12.2 °F 68% 29.71 in 10.0 mi Calm Calm - N/A   Overcast
8:13 PM 21.2 °F - 12.2 °F 68% 29.71 in 10.0 mi Calm Calm - N/A   Mostly Cloudy
8:33 PM 21.2 °F - 12.2 °F 68% 29.71 in 10.0 mi Calm Calm - N/A Snow Light Snow
8:53 PM 21.2 °F - 12.2 °F 68% 29.70 in 10.0 mi Calm Calm - N/A Snow Light Snow
9:33 PM 21.2 °F - 12.2 °F 68% 29.71 in 7.0 mi Calm Calm - N/A Snow Light Snow
9:53 PM 21.2 °F - 14.0 °F 74% 29.71 in 4.0 mi Calm Calm - N/A Snow Light Snow
10:13 PM 21.2 °F - 14.0 °F 74% 29.72 in 5.0 mi Calm Calm - N/A Snow Light Snow
10:33 PM 21.2 °F - 14.0 °F 74% 29.72 in 4.0 mi Calm Calm - N/A Snow Light Snow
10:53 PM 21.2 °F - 15.8 °F 80% 29.72 in 4.0 mi Calm Calm - N/A Snow Light Snow
11:13 PM 21.2 °F - 12.2 °F 68% 29.72 in 5.0 mi Calm Calm - N/A Snow Light Snow
11:33 PM 19.4 °F - 10.4 °F 68% 29.72 in 10.0 mi Calm Calm - N/A Snow Light Snow
11:53 PM 19.4 °F - 10.4 °F 68% 29.72 in 10.0 mi Calm Calm - N/A Snow Light Snow